Rhinelander, WI

2:10 PM CDT on September 26, 2017 (GMT -0500)
Rhinelander-Oneida County

Weather History for KRHI - June, 2014

Change the Weather History Date:

Wednesday, June 4, 2014

  Actual Average Record
Temperature  
Mean Temperature 63 °F 59 °F  
Max Temperature 75 °F 71 °F 90 °F (1934)
Min Temperature 50 °F 47 °F 30 °F (1990)
Degree Days  
Heating Degree Days 2 7  
Month to date heating degree days 7 30  
Since 1 June heating degree days 7 30  
Since 1 July heating degree days 10345 8916  
Cooling Degree Days 0 1  
Month to date cooling degree days 7 4  
Year to date cooling degree days 14 16  
Since 1 June cooling degree days 7 4  
Growing Degree Days 12 (Base 50)    
Moisture  
Dew Point 47 °F    
Average Humidity 68    
Maximum Humidity 100    
Minimum Humidity 35    
Precipitation  
Precipitation 0.00 in 0.13 in 1.20 in (1980)
Month to date precipitation 1.46 0.50  
Year to date precipitation 12.57 10.18  
Snow  
Snow 0.00 in - 0.00 in ()
Month to date snowfall 0.0  
Since 1 June snowfall 0.0  
Since 1 July snowfall 110.3  
Snow Depth 0.00 in    
Sea Level Pressure  
Sea Level Pressure 29.92 in    
Wind  
Wind Speed 4 mph (ENE)    
Max Wind Speed 12 mph    
Max Gust Speed 17 mph    
Visibility 10 miles    
Events      
T = Trace of Precipitation, MM = Missing Value Source: NWS Daily Summary

Daily Weather History Graph

Daily Weather History Graph

Search for Another Location

Airport or City:

Trip Planner

Search our weather history database for the weather conditions in past years. The results will help you decide how hot, cold, wet, or windy it might be!

Date:

Astronomy

Jun. 04, 2014 Rise Set
Actual Time 5:10 AM CDT 8:42 PM CDT
Civil Twilight 4:33 AM CDT 9:19 PM CDT
Nautical Twilight 3:43 AM CDT 10:09 PM CDT
Astronomical Twilight 2:39 AM CDT 11:14 PM CDT
Moon 11:43 AM CDT (6/4) 12:28 AM CDT (6/4)
Length of Visible Light 16h 46m
Length of Day
15h 31m
Waxing Crescent, 39% of the Moon is Illuminated
Jun 4
Waxing Crescent
Jun 5
First Quarter
Jun 12
Full
Jun 19
Last Quarter
Jun 27
New

Hourly Weather History & Observations

Time (CDT) Temp. Dew Point Humidity Pressure Visibility Wind Dir Wind Speed Gust Speed Precip Events Conditions
1:53 AM 51.1 °F 51.1 °F 100% 29.91 in 10.0 mi Calm Calm - N/A   Overcast
2:53 AM 51.1 °F 48.9 °F 92% 29.91 in 10.0 mi Calm Calm - N/A   Overcast
3:53 AM 54.0 °F 51.1 °F 90% 29.91 in 10.0 mi Calm Calm - N/A   Overcast
4:53 AM 53.1 °F 50.0 °F 89% 29.91 in 10.0 mi East 4.6 mph - N/A   Mostly Cloudy
5:53 AM 52.0 °F 50.0 °F 93% 29.91 in 10.0 mi ENE 3.5 mph - N/A   Clear
6:53 AM 55.9 °F 51.1 °F 84% 29.91 in 10.0 mi ENE 3.5 mph - N/A   Clear
7:53 AM 60.1 °F 51.1 °F 72% 29.92 in 10.0 mi East 5.8 mph - N/A   Clear
8:53 AM 64.9 °F 51.1 °F 61% 29.93 in 10.0 mi Variable 5.8 mph - N/A   Clear
9:53 AM 66.9 °F 48.9 °F 52% 29.93 in 10.0 mi Variable 6.9 mph - N/A   Clear
10:53 AM 69.1 °F 46.0 °F 44% 29.94 in 10.0 mi Variable 5.8 mph - N/A   Scattered Clouds
11:53 AM 70.0 °F 45.0 °F 41% 29.94 in 10.0 mi Variable 4.6 mph - N/A   Partly Cloudy
12:53 PM 72.0 °F 46.0 °F 40% 29.94 in 10.0 mi North - - N/A   Scattered Clouds
1:53 PM 71.1 °F 45.0 °F 39% 29.93 in 10.0 mi Variable 4.6 mph - N/A   Scattered Clouds
2:53 PM 71.1 °F 45.0 °F 39% 29.92 in 10.0 mi NE 5.8 mph - N/A   Mostly Cloudy
3:53 PM 73.0 °F 45.0 °F 37% 29.91 in 10.0 mi ENE 4.6 mph - N/A   Mostly Cloudy
4:53 PM 72.0 °F 43.0 °F 35% 29.91 in 10.0 mi NNE 4.6 mph - N/A   Mostly Cloudy
5:53 PM 71.1 °F 42.1 °F 35% 29.91 in 10.0 mi NE 4.6 mph - N/A   Mostly Cloudy
6:53 PM 72.0 °F 42.1 °F 34% 29.91 in 10.0 mi NE 4.6 mph - N/A   Clear
7:53 PM 70.0 °F 43.0 °F 38% 29.92 in 10.0 mi NE 6.9 mph - N/A   Clear
8:53 PM 64.9 °F 42.1 °F 43% 29.93 in 10.0 mi NE 5.8 mph - N/A   Clear
10:53 PM 59.0 °F 43.0 °F 55% 29.95 in 10.0 mi ENE 4.6 mph - N/A   Clear
11:53 PM 55.9 °F 43.0 °F 62% 29.96 in 10.0 mi ENE 4.6 mph - N/A   Clear